DW4707 Campi Bisenzio - Firenze IT current weather conditions

sailwx.info

Wind from 158

Air temperature 17.8° C
Dewpoint 13.1° C

Last reported at 2015-May-25 06:47 UTC.
Time now 2015-May-25 07:26 UTC

Location: N 43°50' E 011°08'.
View on Google Maps.

See reports from other nearby stations

  
Tides and Currents Weather Stations Pressure Air Temp Water Temp Dewpoint Dewpoint Depression Visibility Wind Speed Wind Dir Waves Ship Positions
date/time (UTC)wind fromknots sea level pressurealtimeterstation pressurevisibilityair tempwater tempwave heightnotes
2015-May-25 06:47 158 17.8
2015-May-25 06:42 022 17.2
2015-May-25 06:37 022 17.2
2015-May-25 06:32 202 17.8
2015-May-25 06:27 024 17.8
2015-May-25 06:22 068 17.2
2015-May-25 06:17 045 16.7
2015-May-25 06:12 029 16.7
2015-May-25 06:07 183 16.1
2015-May-25 06:02 180 16.1
2015-May-25 05:57 155 16.1
2015-May-25 05:52 126 15.6
2015-May-25 05:47 199 15.6
2015-May-25 05:42 209 15.6
2015-May-25 05:37 180 15.0
2015-May-25 05:32 202 15.0
2015-May-25 05:27 183 15.0
2015-May-25 05:22 180 14.4
2015-May-25 05:17 180 14.4
2015-May-25 05:12 176 13.3
2015-May-25 05:07 122 12.8
2015-May-25 05:02 112 12.2
2015-May-25 04:57 084 11.7
2015-May-25 04:52 068 11.7
2015-May-25 04:47 068 11.7
2015-May-25 04:42 202 11.7
2015-May-25 04:37 180 11.7
2015-May-25 04:32 180 11.1
2015-May-25 04:27 180 11.1
2015-May-25 04:22 180 11.1
2015-May-25 04:17 022 11.1
2015-May-25 04:12 107 11.1
2015-May-25 04:07 022 11.1
2015-May-25 04:02 045 11.1
2015-May-25 03:57 045 11.1
2015-May-25 03:52 045 11.1
2015-May-25 03:47 158 11.1
2015-May-25 03:42 158 11.1
2015-May-25 03:37 135 11.1
2015-May-25 03:32 158 11.1
2015-May-25 03:27 129 11.1
2015-May-25 03:22 116 11.7
2015-May-25 03:17 292 11.7
2015-May-25 03:12 185 11.7
2015-May-25 03:07 180 11.7
2015-May-25 03:02 158 11.7
2015-May-25 02:57 158 11.7
2015-May-25 02:52 158 11.7
2015-May-25 02:47 158 11.7
2015-May-25 02:42 135 12.2
2015-May-25 02:37 135 12.2
2015-May-25 02:32 135 12.2
2015-May-25 02:27 090 12.2
2015-May-25 02:22 090 12.2
2015-May-25 02:17 090 12.2
2015-May-25 02:12 090 12.2
2015-May-25 02:07 073 12.2
2015-May-25 02:02 068 12.2
2015-May-25 01:57 045 12.2
2015-May-25 01:52 112 12.8
2015-May-25 01:47 022 12.8
2015-May-25 01:42 342 12.2
2015-May-25 01:37 135 12.2
2015-May-25 01:32 135 12.8
2015-May-25 01:27 133 12.8
2015-May-25 01:22 006 12.8
2015-May-25 01:17 12.8
2015-May-25 01:12 12.8
2015-May-25 01:07 12.8
2015-May-25 01:02 022 12.8
2015-May-25 00:57 022 12.8
2015-May-25 00:52 022 12.8
2015-May-25 00:47 022 12.8
2015-May-25 00:42 024 12.8
2015-May-25 00:37 022 12.8
2015-May-25 00:32 022 12.8
2015-May-25 00:27 022 12.8
2015-May-25 00:22 180 12.8
2015-May-25 00:17 180 12.8
2015-May-25 00:12 180 12.8
2015-May-25 00:07 180 13.3
2015-May-25 00:02 135 13.3
2015-May-24 23:57 135 13.3
2015-May-24 23:52 112 13.3
2015-May-24 23:47 045 13.3
2015-May-24 23:42 180 13.3
2015-May-24 23:37 270 13.3
2015-May-24 23:32 292 13.3
2015-May-24 23:27 338 13.3
2015-May-24 23:22 338 13.3
2015-May-24 23:17 338 13.3
2015-May-24 23:12 338 13.3
2015-May-24 23:07 338 13.9
2015-May-24 23:02 338 13.9
2015-May-24 22:57 345 13.9
2015-May-24 22:52 13.9
2015-May-24 22:47 13.9
2015-May-24 22:42 13.9
2015-May-24 22:37 13.9
2015-May-24 22:32 13.9
2015-May-24 22:27 14.4
2015-May-24 22:22 14.4
2015-May-24 22:16 14.4
2015-May-24 22:12 14.4
2015-May-24 22:07 14.4
2015-May-24 22:01 14.4
2015-May-24 21:57 14.4
2015-May-24 21:52 14.4
2015-May-24 21:47 158 14.4
2015-May-24 21:42 158 15.0
2015-May-24 21:37 158 15.0
2015-May-24 21:32 045 15.0
2015-May-24 21:27 090 15.0
2015-May-24 21:22 090 15.0
2015-May-24 21:17 068 15.0
2015-May-24 21:12 123 15.0
2015-May-24 21:07 112 15.0
2015-May-24 21:02 116 15.0
2015-May-24 20:57 097 15.6
2015-May-24 20:51 180 15.6
2015-May-24 20:47 180 15.6
2015-May-24 20:42 166 15.6
2015-May-24 20:37 158 15.6
2015-May-24 20:32 180 15.6
2015-May-24 20:27 191 15.6
2015-May-24 20:22 202 16.1
2015-May-24 20:17 270 16.1
2015-May-24 20:12 270 16.1
2015-May-24 20:07 270 16.1
2015-May-24 20:01 267 16.1
2015-May-24 19:57 202 16.7
2015-May-24 19:52 158 16.7
2015-May-24 19:47 090 16.7
2015-May-24 19:42 056 16.7
2015-May-24 19:37 022 16.7
2015-May-24 19:32 022 17.2
2015-May-24 19:27 17.2
2015-May-24 19:22 17.2
2015-May-24 19:17 022 17.8
2015-May-24 19:12 022 17.8
2015-May-24 19:07 022 17.8
2015-May-24 19:02 022 17.8
2015-May-24 18:57 022 17.8
2015-May-24 18:52 090 18.3
2015-May-24 18:47 045 18.3
2015-May-24 18:42 140 18.3
2015-May-24 18:37 045 18.9
2015-May-24 18:32 022 18.9
2015-May-24 18:27 032 18.9
2015-May-24 18:22 022 19.4
2015-May-24 18:17 045 19.4
2015-May-24 18:12 022 19.4
2015-May-24 18:07 022 19.4
2015-May-24 18:02 015 19.4
2015-May-24 17:57 014 19.4
2015-May-24 17:52 19.4
2015-May-24 17:47 19.4
2015-May-24 17:42 051 20.0
2015-May-24 17:37 045 20.0
2015-May-24 17:32 20.0
2015-May-24 17:27 045 20.0
2015-May-24 17:22 20.0
2015-May-24 17:17 20.0
2015-May-24 17:12 20.0
2015-May-24 17:07 090 0 gusting 1 20.0
2015-May-24 17:02 045 0 gusting 0 20.0
2015-May-24 16:57 059 20.0
2015-May-24 16:52 022 20.0
2015-May-24 16:47 20.0
2015-May-24 16:42 033 20.6
2015-May-24 16:37 045 20.6
2015-May-24 16:32 20.6
2015-May-24 16:27 038 20.6
2015-May-24 16:17 022 20.6
2015-May-24 16:12 033 0 gusting 0 20.6
2015-May-24 16:07 090 20.6
2015-May-24 16:02 045 1 gusting 1 20.6
2015-May-24 15:57 274 20.6
2015-May-24 15:52 20.6
2015-May-24 15:47 20.6
2015-May-24 15:42 044 1 gusting 1 20.6
2015-May-24 15:37 090 1 gusting 2 20.6
2015-May-24 15:32 045 0 gusting 1 20.6
2015-May-24 15:27 022 20.6
2015-May-24 15:22 090 20.6
2015-May-24 15:17 341 20.6
2015-May-24 14:57 20.6
2015-May-24 14:52 20.6
2015-May-24 14:42 078 0 gusting 4 20.6
2015-May-24 14:37 20.6
2015-May-24 14:32 20.0
2015-May-24 14:27 20.0
2015-May-24 14:22 270 20.0
2015-May-24 14:17 20.0
2015-May-24 14:12 022 0 gusting 5 20.0
2015-May-24 14:07 20.0
2015-May-24 14:02 022 2 gusting 2 20.0
2015-May-24 13:57 045 0 gusting 5 20.6
2015-May-24 13:52 045 2 gusting 5 20.6
2015-May-24 13:47 038 2 gusting 2 20.6
2015-May-24 13:42 351 0 gusting 2 21.1
2015-May-24 13:37 022 1 gusting 1 21.1
2015-May-24 13:32 062 1 gusting 1 21.1
2015-May-24 13:27 015 0 gusting 1 20.6
2015-May-24 13:22 068 0 gusting 0 21.1
2015-May-24 13:17 012 21.1
2015-May-24 13:12 007 21.1
2015-May-24 13:07 21.1
2015-May-24 13:02 158 0 gusting 0 21.1
2015-May-24 12:57 21.7
2015-May-24 12:52 022 0 gusting 0 22.2
2015-May-24 12:47 023 22.2
2015-May-24 12:42 090 22.2
2015-May-24 12:37 045 0 gusting 1 22.2
2015-May-24 12:32 22.2
2015-May-24 12:27 022 0 gusting 1 22.2
2015-May-24 12:22 068 1 gusting 2 22.2
2015-May-24 12:17 068 2 gusting 2 22.2
2015-May-24 12:12 075 22.2
2015-May-24 12:07 022 0 gusting 1 21.7
2015-May-24 12:02 22.2
2015-May-24 11:57 043 0 gusting 0 22.2
2015-May-24 11:52 045 21.7
2015-May-24 11:47 022 1 gusting 2 22.2
2015-May-24 11:42 055 1 gusting 2 22.2
2015-May-24 11:37 068 0 gusting 0 21.7
2015-May-24 11:32 318 2 gusting 2 21.7
2015-May-24 11:27 347 0 gusting 0 21.7
2015-May-24 11:22 338 21.7
2015-May-24 11:17 045 21.7
2015-May-24 11:12 037 0 gusting 1 21.7
2015-May-24 11:07 338 1 gusting 2 21.1
2015-May-24 11:02 068 20.6
2015-May-24 10:57 022 0 gusting 1 20.6
2015-May-24 10:52 068 20.6
2015-May-24 10:47 001 20.6
2015-May-24 10:42 048 21.1
2015-May-24 10:37 20.6
2015-May-24 10:32 338 0 gusting 0 20.6
2015-May-24 10:27 112 20.0
2015-May-24 10:22 135 1 gusting 1 20.0
2015-May-24 10:17 034 0 gusting 1 20.0
2015-May-24 10:12 022 0 gusting 1 20.0
2015-May-24 10:07 090 20.0
2015-May-24 10:02 20.6
2015-May-24 09:57 20.6
2015-May-24 09:52 022 2 gusting 2 21.1
2015-May-24 09:47 022 21.7
2015-May-24 09:42 022 2 gusting 7 20.6
2015-May-24 09:37 338 20.6
2015-May-24 09:32 338 0 gusting 1 20.0
2015-May-24 09:27 022 0 gusting 0 20.0
2015-May-24 09:22 338 0 gusting 0 19.4
2015-May-24 09:17 262 19.4
2015-May-24 09:12 068 1 gusting 2 19.4
2015-May-24 09:07 045 19.4
2015-May-24 09:02 20.0
2015-May-24 08:57 045 0 gusting 1 20.0
2015-May-24 08:52 022 0 gusting 1 20.0
2015-May-24 08:47 100 20.0
2015-May-24 08:42 028 2 gusting 4 20.0
2015-May-24 08:37 20.0
2015-May-24 08:32 012 2 gusting 4 19.4
2015-May-24 08:27 338 2 gusting 4 19.4
2015-May-24 08:22 068 0 gusting 1 19.4
2015-May-24 08:17 066 0 gusting 0 19.4
2015-May-24 08:12 068 0 gusting 0 19.4
2015-May-24 08:07 338 19.4
2015-May-24 08:02 353 18.9
2015-May-24 07:57 18.3
2015-May-24 07:52 338 1 gusting 6 17.8
2015-May-24 07:47 005 0 gusting 0 17.8
2015-May-24 07:42 338 0 gusting 2 17.2
2015-May-24 07:37 045 17.2
2015-May-24 07:32 17.2
2015-May-24 07:27 344 17.2
2015-May-24 07:22 112 17.2
2015-May-24 07:17 010 1 gusting 1 17.2
2015-May-24 07:12 022 17.2
2015-May-24 07:07 17.8
2015-May-24 07:02 101 18.3
2015-May-24 06:57 180 19.4
2015-May-24 06:52 068 19.4
2015-May-24 06:47 014 19.4
2015-May-24 06:42 090 19.4
2015-May-24 06:37 022 18.9
2015-May-24 06:32 022 1 gusting 1 18.3
2015-May-24 06:27 135 17.8
2015-May-24 06:22 16.7
2015-May-24 06:17 340 16.1
2015-May-24 06:12 225 16.1
2015-May-24 06:07 022 15.6
2015-May-24 06:02 005 1 gusting 4 15.6
2015-May-24 05:57 250 15.6
2015-May-24 05:52 022 15.0
2015-May-24 05:47 009 15.0
2015-May-24 05:42 135 15.0
2015-May-24 05:37 135 15.0
2015-May-24 05:32 135 15.0
2015-May-24 05:27 135 15.0
2015-May-24 05:22 15.0
2015-May-24 05:17 004 15.0
2015-May-24 05:12 153 15.0
2015-May-24 05:07 022 14.4
2015-May-24 05:02 045 13.9
2015-May-24 04:57 045 13.9
2015-May-24 04:52 315 13.9
2015-May-24 04:47 202 13.9
2015-May-24 04:42 225 13.3
2015-May-24 04:37 045 13.3
2015-May-24 04:32 135 13.3
2015-May-24 04:27 022 13.3
2015-May-24 04:22 068 13.3
2015-May-24 04:17 022 13.3
2015-May-24 04:12 046 13.3
2015-May-24 04:07 315 12.8
2015-May-24 04:02 327 12.8
2015-May-24 03:57 202 12.8
2015-May-24 03:52 202 12.8
2015-May-24 03:47 180 12.8
2015-May-24 03:42 202 12.8
2015-May-24 03:37 090 12.8
2015-May-24 03:32 090 13.3
2015-May-24 03:27 090 13.3
2015-May-24 03:22 112 13.3
2015-May-24 03:17 349 13.3
2015-May-24 03:12 022 13.3
2015-May-24 03:07 045 13.3
2015-May-24 03:02 033 13.3
2015-May-24 02:57 022 13.3
2015-May-24 02:52 202 13.3
2015-May-24 02:47 293 13.3
2015-May-24 02:42 133 13.3
2015-May-24 02:37 13.3
2015-May-24 02:32 222 13.3
2015-May-24 02:27 13.3
2015-May-24 02:22 022 13.3
2015-May-24 02:17 015 13.3
2015-May-24 02:12 022 13.3
2015-May-24 02:07 202 13.3
2015-May-24 02:02 202 13.3
2015-May-24 01:57 202 13.3
2015-May-24 01:52 180 13.3
2015-May-24 01:47 022 13.3
2015-May-24 01:42 022 13.3
2015-May-24 01:37 022 13.3
2015-May-24 01:32 058 13.3
2015-May-24 01:27 180 13.3
2015-May-24 01:22 051 13.3
2015-May-24 01:17 173 13.3
2015-May-24 01:12 158 13.3
2015-May-24 01:07 068 13.3
2015-May-24 01:02 045 13.3
2015-May-24 00:57 338 13.3
2015-May-24 00:52 13.3
2015-May-24 00:47 349 13.3
2015-May-24 00:42 022 13.3
2015-May-24 00:37 13.3
2015-May-24 00:32 022 13.3
2015-May-24 00:27 022 13.3
2015-May-24 00:22 180 13.3
2015-May-24 00:17 008 13.3
2015-May-24 00:12 112 13.3
2015-May-24 00:07 068 13.9
2015-May-24 00:02 006 13.9
2015-May-23 23:57 022 13.9
2015-May-23 23:52 022 13.9
2015-May-23 23:47 022 13.9
2015-May-23 23:42 338 0 gusting 0 13.9
2015-May-23 23:37 158 13.9
2015-May-23 23:32 338 13.9
2015-May-23 23:27 112 13.9
2015-May-23 23:22 022 13.9
2015-May-23 23:17 075 13.9
2015-May-23 23:12 022 13.9
2015-May-23 23:07 022 13.9
2015-May-23 23:02 063 13.9
2015-May-23 22:57 180 13.9
2015-May-23 22:52 068 13.9
2015-May-23 22:47 102 14.4
2015-May-23 22:42 002 14.4
2015-May-23 22:37 315 14.4
2015-May-23 22:32 020 14.4
2015-May-23 22:27 045 14.4
2015-May-23 22:22 022 14.4
2015-May-23 22:17 030 14.4
2015-May-23 22:12 045 14.4
2015-May-23 22:07 022 14.4
2015-May-23 22:02 005 14.4
2015-May-23 21:57 068 14.4
2015-May-23 21:52 022 0 gusting 0 14.4
2015-May-23 21:47 045 14.4
2015-May-23 21:42 022 14.4
2015-May-23 21:37 090 14.4
2015-May-23 21:32 090 14.4
2015-May-23 21:27 158 14.4
2015-May-23 21:22 045 14.4
2015-May-23 21:17 14.4
2015-May-23 21:12 338 14.4
2015-May-23 21:07 338 14.4
2015-May-23 21:02 022 14.4
2015-May-23 20:57 022 14.4
2015-May-23 20:52 045 14.4
2015-May-23 20:47 010 14.4
2015-May-23 20:42 022 14.4
2015-May-23 20:37 057 14.4
2015-May-23 20:32 011 14.4
2015-May-23 20:27 338 14.4
2015-May-23 20:22 022 0 gusting 0 14.4
2015-May-23 20:17 15.0
2015-May-23 20:12 14.4
2015-May-23 20:07 068 14.4
2015-May-23 20:02 022 15.0
2015-May-23 19:57 014 15.0
2015-May-23 19:52 338 0 gusting 2 15.0
2015-May-23 19:47 005 15.0
2015-May-23 19:42 15.0
2015-May-23 19:37 338 15.0
2015-May-23 19:32 292 15.0
2015-May-23 19:27 022 15.0
2015-May-23 19:22 15.0
2015-May-23 19:17 225 15.0
2015-May-23 19:12 045 15.6
2015-May-23 19:07 292 15.6
2015-May-23 19:02 042 15.6
2015-May-23 18:57 045 15.6
2015-May-23 18:52 068 15.6
2015-May-23 18:47 005 1 gusting 2 15.6
2015-May-23 18:42 022 15.6
2015-May-23 18:37 15.6
2015-May-23 18:32 045 15.6
2015-May-23 18:27 325 16.1
2015-May-23 18:22 022 0 15.6
2015-May-23 18:17 315 1 gusting 1 16.1
2015-May-23 18:12 068 16.7
2015-May-23 18:07 022 16.7
2015-May-23 18:02 068 16.7
2015-May-23 17:57 068 16.7
2015-May-23 17:52 068 16.7
2015-May-23 17:47 254 16.7
2015-May-23 17:42 202 16.7
2015-May-23 17:37 177 16.7
2015-May-23 17:32 158 16.7
2015-May-23 17:27 112 0 16.7
2015-May-23 17:22 112 0 gusting 0 16.7
2015-May-23 17:17 022 16.7
2015-May-23 17:12 043 16.7
2015-May-23 17:07 022 16.7
2015-May-23 17:02 16.7
2015-May-23 16:57 045 16.7
2015-May-23 16:52 022 16.7
2015-May-23 16:47 16.7
2015-May-23 16:42 16.7
2015-May-23 16:37 092 16.7
2015-May-23 16:32 112 16.7
2015-May-23 16:27 150 16.7
2015-May-23 16:17 16.7
2015-May-23 16:12 16.7
2015-May-23 16:07 022 16.7
2015-May-23 16:02 045 17.2
2015-May-23 15:57 045 17.2
2015-May-23 15:52 045 17.2
2015-May-23 15:42 022 17.2
2015-May-23 15:37 118 17.2
2015-May-23 15:32 068 17.2
2015-May-23 15:22 045 17.2
2015-May-23 15:17 031 17.2
2015-May-23 15:12 022 17.2
2015-May-23 15:07 022 17.2
2015-May-23 15:02 326 17.8
2015-May-23 14:57 202 17.8
2015-May-23 14:47 022 17.2
2015-May-23 14:42 17.2
2015-May-23 14:37 17.8
2015-May-23 14:22 158 17.8
2015-May-23 14:12 158 17.8
2015-May-23 14:07 045 17.8
2015-May-23 14:02 098 17.2
2015-May-23 13:57 090 17.2
2015-May-23 13:52 090 17.2
2015-May-23 13:47 318 17.2
2015-May-23 13:42 270 17.2
2015-May-23 13:37 068 17.2
2015-May-23 13:32 084 16.7
2015-May-23 13:27 112 16.7
2015-May-23 13:22 045 16.7
2015-May-23 13:17 112 16.7
2015-May-23 13:12 068 16.7
2015-May-23 13:07 045 16.7
2015-May-23 13:02 082 16.7
2015-May-23 12:57 068 16.7
2015-May-23 12:52 068 16.7
2015-May-23 12:47 068 16.7
2015-May-23 12:42 022 16.7
2015-May-23 12:37 112 16.7
2015-May-23 12:32 112 16.7
2015-May-23 12:22 158 16.7
2015-May-23 12:17 158 16.7
2015-May-23 12:12 16.7
2015-May-23 12:07 022 16.1
2015-May-23 12:02 16.1
2015-May-23 11:57 340 16.1
2015-May-23 11:52 16.1
2015-May-23 11:42 022 16.1
2015-May-23 11:37 045 16.1
2015-May-23 11:32 135 16.1
2015-May-23 11:27 16.1
2015-May-23 11:22 022 16.1
2015-May-23 11:12 022 16.1
2015-May-23 11:07 112 16.1
2015-May-23 11:02 068 16.1
2015-May-23 10:57 085 16.1
2015-May-23 10:52 090 16.1
2015-May-23 10:47 16.1
2015-May-23 10:42 180 16.1
2015-May-23 10:37 072 16.1
2015-May-23 10:32 16.1
2015-May-23 10:22 001 16.1
2015-May-23 10:17 022 16.1
2015-May-23 10:12 054 16.1
2015-May-23 10:07 068 16.1
2015-May-23 10:02 081 16.1
2015-May-23 09:57 045 16.1
2015-May-23 09:42 16.1
2015-May-23 09:37 022 16.1
2015-May-23 09:32 165 16.1
2015-May-23 09:27 112 16.1
2015-May-23 09:22 022 16.1
2015-May-23 09:17 180 15.6
2015-May-23 09:12 180 15.6
2015-May-23 09:07 022 15.6
2015-May-23 09:02 15.6
2015-May-23 08:57 022 15.6
2015-May-23 08:47 045 15.6
2015-May-23 08:42 15.6
2015-May-23 08:37 011 15.6
2015-May-23 08:32 066 15.6
2015-May-23 08:27 15.6
2015-May-23 08:22 182 15.6
2015-May-23 08:17 096 15.6
2015-May-23 08:12 135 15.6
2015-May-23 08:02 202 15.0
2015-May-23 07:52 068 15.0
2015-May-23 07:47 163 15.0
2015-May-23 07:42 338 15.6
2015-May-23 07:37 341 15.0
2015-May-23 07:27 202 14.4
2015-May-23 07:22 011 14.4
2015-May-23 07:07 160 14.4
2015-May-23 07:02 034 14.4